Regional Weather Roundup
Issued by NWS Grand Forks, ND

Home | Current Version | Previous Version | Graphics & Text | Print | Product List | Glossary Off
Versions: 1 2 3 4 5 6 7 8 9 10 11 12 13 14 15 16 17 18 19 20 21 22 23 24 25 26 27 28 29 30 31 32 33 34 35 36 37 38 39 40 41 42 43 44 45 46 47 48 49 50

000
ASUS43 KFGF 312331
RWRFGF
PRAIRIE TO PINES  WEATHER ROUNDUP
NATIONAL WEATHER SERVICE EASTERN NORTH DAKOTA/GRAND FORKS ND
600 PM CDT WED AUG 31 2016

 **SATELLITE DATA USED TO AUGMENT SKY COVER AT AUTOMATED STATIONS**
 *****  WEATHER ACROSS EASTERN NORTH DAKOTA  *****

CITY           SKY/WX    TMP DP  RH WIND       PRES   REMARKS
GRAND FORKS    MOSUNNY   75  54  47 NE8       30.19S
GRAND FRKS AFB SUNNY     73  55  53 NE3       30.21R
GRAND FRKS NWS   N/A     72 N/A N/A N5          N/A
DEVILS LAKE    CLOUDY    72  55  55 E8        30.22R
FARGO          SUNNY     78  55  44 NE7       30.19R
WAHPETON ARPT  CLEAR     79  48  34 N5        30.18R
$$

 ***** WEATHER ACROSS CENTRAL AND WESTERN NORTH DAKOTA  *****

CITY           SKY/WX    TMP DP  RH WIND       PRES   REMARKS
BISMARCK       CLOUDY    80  60  50 E24G30    30.13R
MINOT          CLOUDY    75  61  61 E20G30    30.13F
JAMESTOWN      MOSUNNY   78  56  46 SE9       30.18S
MINOT AFB      CLOUDY    78  60  54 SE22G30   30.10F
GARRISON         N/A     86  63  45 SE14G24   30.11S
WILLISTON      SUNNY     96  45  17 S12G20    29.96F HX  92
DICKINSON      SUNNY     88  48  25 S24G32    30.06S
HETTINGER      SUNNY     88  52  29 S22G28    30.10F
$$

 *****  OTHER AIRPORT OBSERVATIONS IN OUR AREA  *****

CITY           SKY/WX    TMP DP  RH WIND       PRES   REMARKS
WALHALLA       FAIR      68  66  94 NE3       30.23F
GRAFTON AIRPOR FAIR      70  54  56 NE9       30.23S
VALLEY CITY AR FAIR      73  55  53 E10       30.22S
CANDO          MOCLDY    70  55  60 E7        30.23F HAZE
CAVALIER APRT  FAIR      70  54  56 NE6       30.22F
GWINNER        FAIR      77  57  50 NE10      30.19R
SHEYENNE NWR     N/A     79  55  43 E7        29.95S
ROLLA          FAIR      68  54  60 SE10      30.21F
 ***** THE ABOVE OBSERVATIONS ARE NON NWS ARE NOT QUALITY
       CONTROLLED AND MAY MIS-REPORT RAIN FOR SNOW...
$$

  *****  WEATHER ACROSS NORTHERN MINNESOTA  *****

CITY           SKY/WX    TMP DP  RH WIND       PRES   REMARKS
FLAG ISLAND    MOSUNNY   66  52  59 N3        30.23S
WARROAD        SUNNY     68  57  68 E6        30.25R
ROSEAU         SUNNY     70  55  60 NE6       30.24R
HALLOCK        SUNNY     73  54  49 NE5       30.22S
THF RVR FALLS  SUNNY     72  55  55 NE7       30.23S
BAUDETTE       SUNNY     68  54  60 NW9       30.23F
WASKISH        MOSUNNY   72  54  53 NE5       30.22S
CROOKSTON      SUNNY     73  55  53 NE6       30.21S
STEPHEN NDAWN    N/A     72  55  56 NE5         N/A
GREENBUSH NDAW   N/A     73  54  49 NE6         N/A
$$
  *****  WEATHER ACROSS CENTRAL AND WEST MINNESOTA  *****

CITY           SKY/WX    TMP DP  RH WIND       PRES   REMARKS
FOSSTON        SUNNY     73  55  53 N6        30.22S
BEMIDJI        SUNNY     69  53  57 N7        30.22S
PARK RAPIDS    SUNNY     75  52  44 VRB6      30.20S
ELBOW LAKE     FAIR      76  56  50 NE6       30.19S
WADENA         SUNNY     73  54  49 NE3       30.19S
DETROIT LAKES  SUNNY     73  54  49 NW6       30.22R
MOORHEAD       SUNNY     77  52  41 N7        30.20R
FERGUS FALLS   SUNNY     75  55  50 NE5       30.19S
MORRIS MN      SUNNY     79  55  44 NE3       30.17S
STAPLES        SUNNY     73  48  40 NE3       30.19S
$$
  *****  WEATHER ELSEWHERE ACROSS MINNESOTA  *****

CITY           SKY/WX    TMP DP  RH WIND       PRES   REMARKS
DULUTH         PTSUNNY   70  54  56 N9        30.19S
INTRNTL FALLS  SUNNY     69  49  48 N7        30.21F
ELY            SUNNY     66  48  52 CALM      30.20S
CLOQUET        MOSUNNY   70  52  52 N6        30.19S
WHEATON        CLOUDY    81  57  44 NE6       30.19R
BRAINERD       SUNNY     73  54  51 N9        30.19F
HIBBING        PTSUNNY   68  51  54 N7        30.21S
ALEXANDRIA     SUNNY     77  52  41 NE8       30.20F
SAINT CLOUD    SUNNY     76  55  48 N5        30.16F
MINNEAPOLIS    MOSUNNY   78  51  38 N10       30.15F
$$

  *****  WEATHER ACROSS SOUTH DAKOTA  *****

CITY           SKY/WX    TMP DP  RH WIND       PRES   REMARKS
SIOUX FALLS    MOSUNNY   81  61  50 NE8       30.17F
BROOKINGS      MOSUNNY   79  59  50 E7        30.18F
WATERTOWN      MOSUNNY   81  55  40 S6        30.18F
HURON          SUNNY     83  59  44 SE6       30.14F
SISSETON         N/A     79  57  46 SE5       30.16F
ABERDEEN       SUNNY     81  62  52 SE6       30.15F
MITCHELL       SUNNY     83  56  39 SE3       30.15F
PIERRE         SUNNY     85  63  47 E14       30.11F
MOBRIDGE       SUNNY     84  61  45 E18       30.10F
RAPID CITY     MOSUNNY   82  54  37 S20       30.14F
$$

  *****  SOME WEATHER IN NEARBY STATES *****

CITY           SKY/WX    TMP DP  RH WIND       PRES   REMARKS
GLASGOW MT     SUNNY     98  39  13 S18G26    29.85F HX  93
GREAT FALLS MT CLOUDY    90  32  12 NW16G29   29.90S
CHEYENNE WY    SUNNY     73  48  41 MISG      30.27F
SCOTTSBLUFF NE MOSUNNY   81  57  43 E15       30.18F
OMAHA NE       MOSUNNY   80  59  48 N10       30.14S
DES MOINES IA  PTSUNNY   79  57  46 NE12      30.12R
DAVENPORT IA   SUNNY     76  60  57 N9        30.09S
CHICAGO IL     MOSUNNY   73  53  49 NE15      30.07F
EAU CLAIRE WI  MOSUNNY   76  52  43 N6        30.14S
LA CROSSE WI   SUNNY     78  53  41 N8        30.12S
$$

  *****  SOME NATIONAL WEATHER *****

CITY           SKY/WX    TMP DP  RH WIND       PRES   REMARKS
LA GUARDIA NY  CLOUDY    82  67  60 S14       29.87S
RALEIGH NC     MOCLDY    85  68  56 S7        29.92R THUNDER
ATLANTA GA     MOSUNNY   91  63  39 E6        29.90S HX  92
NEW ORLEANS LA MOSUNNY   93  73  52 NE9       29.80S HX 102
OKLAHOMA CITY  CLOUDY    73  70  90 NE9       30.04R
ALBUQUERQUE NM MOSUNNY   82  50  32 VRB5      30.17F
SALT LAKE CITY PTSUNNY   94  34  12 N13       29.98F
LOS ANGELES CA SUNNY     75  61  61 W17       29.84S
BOISE ID       SUNNY     91  38  15 NW10      29.85F
SEATTLE WA     CLOUDY    67  57  70 S8        29.99S
$$

*** WEATHER ACROSS MANITOBA...SASKATCHEWAN AND ONTARIO ***
                ***ONTARIO***

CITY           SKY/WX    TMP DP  RH WIND       PRES   REMARKS
GERALDTON      CLOUDY    57  50  77 MISG      30.18R
THUNDER BAY    PTSUNNY   68  50  52 NW7       30.16S
SIOUX LOOKOUT  MOSUNNY   61  48  63 NE9       30.26R
TORONTO        PTCLDY    73  54  49 N18G29    29.91R
BIG TROUT LK   CLOUDY    50  50 100 N7        30.31S
PICKLE LAKE    CLOUDY    57  50  77 N8        30.27S
DRYDEN         SUNNY     63  48  59 NE7       30.25S
KENORA         MOSUNNY   64  52  63 N7        30.25F
$$
                *** MANITOBA***

CITY           SKY/WX    TMP DP  RH WIND       PRES   REMARKS
BRANDON        CLOUDY    70  54  56 E13G18    30.22R
DAUPHIN        SUNNY     66  55  68 E15G22    30.23F
ISLAND LAKE    PTSUNNY   57  50  77 NE7       30.34S
PILOT MOUND      N/A     68  52  56 E10         N/A
THE PAS        PTSUNNY   64  50  59 SE15      30.26F
THOMPSON       MOSUNNY   64  41  42 E6        30.31F
WINNIPEG       PTSUNNY   66  54  63 N9        30.25R
LYNN LAKE      SUNNY     66  45  45 MISG      30.26F
CHURCHILL      PTSUNNY   54  43  66 NE9       30.36S
GILLAM         MOSUNNY   63  45  51 N6        30.34S
$$
                ***SASKATCHEWAN***

CITY           SKY/WX    TMP DP  RH WIND       PRES   REMARKS
ESTEVAN        PTSUNNY   77  61  57 E23G33    30.04F
KINDERSLEY     PTSUNNY   79  61  53 SE20G28   29.90S
LLOYDMINSTER   PTSUNNY   77  55  47 SE18G31   29.92F
PRINCE ALBERT  CLOUDY    73  55  53 SE16G24   30.08F
REGINA         CLOUDY    77  57  50 E22G36    30.01F
YORKTON        SUNNY     72  57  60 E16G22    30.15F
N. BATTLEFORD  SUNNY     79  52  38 SE29G36   29.97F
LA RONGE       PTSUNNY   64  52  63 E17G24    30.15F
SASKATOON      PTSUNNY   79  55  44 SE25G33   30.01F
SWIFT CURRENT  SUNNY     79  59  50 E17G26    29.92F
$$
NOTE: THESE ARE AUTOMATED STATIONS WITH LIMITED QUALITY CONTROL
      "FAIR" INDICATES FEW OR NO CLOUDS BELOW 12,000 FEET WITH NO
      SIGNIFICANT WEATHER AND/OR OBSTRUCTIONS TO VISIBILITY.
      SKY/WX - SKY CONDITION AND SIGNIFICANT WEATHER.
      TMP - AIR TEMPERATURE.    DP   - DEWPOINT TEMPERATURE.
      RH  - RELATIVE HUMIDITY.  PRES - PRESSURE.
      HX  - HEAT INDEX.         WCI  - WIND CHILL INDEX.
$




USA.gov is the U.S. government's official web portal to all federal, state and local government web resources and services.